H-2A R/B, 27369

Orbit data source: Space-Track

H-2A R/B, 27369 is space debris in HEO originally from a launch on Mon, 04 Feb 2002 UTC launched from the Tanegashima Space Center (TNSTA). Debris objects in space refer to the collection of defunct objects orbiting the Earth. Examples of debris include non-operational satellites, rocket bodies, and fragments generated from explosions, collisions, or faulty payload assembly.

Loading next visibility...
Identifier
27369, 2002-003C
Orbit
HEO
Last TLE update
14 hours ago
Origin
Manufacturer
Unknown
Mission
Spacecraft
Bus & Motor
H-2A STAGE 2, Unknown motor
Mass
4,000 kg wet, 4,000 kg dry
Launch date (UTC)
2002-02-04 (23 years ago)
Launch vehicle
Unknown
Launch site
Tanegashima Space Center (TNSTA)
Object type
Payload
Rocket body
Debris
Shape & HBR
Cyl, 9.2 m
Radar Cross Section
35.186 m², Large (>1 m²)

Expand to show TLE details & history

TLE from 14 hours ago
0 H-2A R/B
1 27369U 02003C   25128.63896460 -.00000051  00000-0  00000-0 0  9999
2 27369  24.1245 279.1933 6885816  10.1971 358.5104  2.37190917200908
Epoch: 2025-05-08T15:20Z
Definitive object data (Epoch: 2025-05-08T15:20:06.541Z)
Latitude
0.00042°
Longitude
-177.55846°
Altitude
1,083.239 km
Speed
9.49 km/s
True Right ascension
18h 36m 42s
True Declination
0° 00' 02"
Sunlit
Object was in full shadow at TLE epoch
Visualization TLE readout
Latitude
1.25137°
Longitude
-0.5426°
Altitude
31,383.457 km
Speed
2.081 km/s
Apparent Right ascension
05h 56m 41s
Apparent Declination
-4° 44' 42"
Sunlit
Object is in daylight
Visualization observer readout
Local Sidereal Time
13:15:22
Azimuth
279.19° WNW
Elevation
-18.083°
Doppler factor
1
Orbital elements
Apogee altitude
33,732.427 km
Perigee altitude
1,019.295 km
Semi-major axis
23,753.998 km
Eccentricity
0.6885816
Inclination
24.1245°
RAAN
279.1933°
Arg. of periapsis
10.1971°
True anomaly
348.91845°
Mean anomaly
358.5104°
Eccentric anomaly
355.22891°
Mean motion
0.59284 °/min
BSTAR
Unknown
Orbital period
607.25 mins
Loading maneuver chart data...
Loading SW <> Apogee altitude chart data...
Loading historical data...
Loading historical data...
Loading historical data...
Loading historical data...
Loading historical data...
Loading historical data...
Loading historical data...
Other satellites on launch #3 in the year 2002 (2002-02-04 UTC)

H-2A R/B Visibility forecast

Observer location: undefined°, undefined°

Span
Click to sort rows by Start time (UTC) header in descending order
Start Az.
Max El. time (UTC)
Max El. Az.
Max El.
End time (UTC)
End Az.
284 mins2025-05-09 22:26:45.970Z269.76° W2025-05-09 23:36:45.970Z243.045° WSW27.395°2025-05-10 03:10:45.970Z244.237° WSW
|